User: anonymous   Login
Location: Caltech
(34.1382°N, 118.1253°W)
Time: 02:49:18
(UTC-08:00)
Language:

Uribyol 2 - Orbit

View from above orbital plane
View from above orbital plane
View from above satellite
View from above satellite

Ground track
Ground track

The orbit data is extracted from the following two-line orbital elements,

1 22828U 93061F   16040.86441208  .00000101  00000-0  56029-4 0  9993
2 22828  98.7282 355.6036 0008940 297.8064  62.2212 14.30568504135409
Epoch (UTC): 09 February 2016 20:44:45
Eccentricity: 0.0008940
inclination: 98.7282°
perigee height: 783 km
apogee height: 796 km
right ascension of ascending node: 355.6036°
argument of perigee: 297.8064°
revolutions per day: 14.30568504
mean anomaly at epoch: 62.2212°
orbit number at epoch: 13540

The dashed part of the orbit path shows where the satellite is in the earth's shadow,  

DLR